Home > Weather > Columbus > Past weeks

Flag for USA Past Weather in Columbus, Georgia, USA — Yesterday and Last 2 Weeks

Now
86 °F

Partly sunny.


Feels Like: 90 °F
Forecast: 74 / 91 °F
Wind: 9 mph from Northwest

Location: Columbus Metropolitan Airport

Current Time: Jul 27, 2016 at 1:26:52 PM

Latest Report: Jul 27, 2016 at 12:51 PM


Visibility: 10 mi

Pressure: 30.06 "Hg

Humidity: 57%

Dew Point: 69 °F

Location of ColumbusLocation

Past Weather in Columbus — Graph

°F

Columbus Temperature Yesterday

Maximum temperature yesterday: 95 °F (at 4:51 PM)
Minimum temperature yesterday: 73 °F (at 6:51 AM)
Average temperature yesterday: 84 °F

High & Low Weather Summary for the Past Weeks

 TemperatureHumidityPressure
High98 °F (Jul 20, 5:51 PM)97% (Jul 13, 4:51 AM)30.27 "Hg (Jul 13, 4:51 AM)
Low69 °F (Jul 13, 5:51 AM)32% (Jul 24, 4:51 PM)29.93 "Hg (Jul 23, 6:51 PM)
Average82 °F69%30.07 "Hg
* Reported Jul 12 11:51 AM — Jul 27 11:58 AM, Columbus, Weather by CustomWeather, © 2016

Note: Actual official high and low records may vary slightly from our data, if they occured in-between our weather recording intervals... More about our weather records

Advertising

Columbus Weather History for the Previous 24 Hours

Scroll right to see more
 ConditionsComfort  
Time TempWeatherWind HumidityBarometerVisibility
11:58 AM
Wed, Jul 27
86 °FPartly sunny.6 mph61%30.09 "Hg10 mi
10:51 AM82 °FPartly sunny.8 mph70%30.07 "Hg10 mi
9:51 AM79 °FMostly cloudy.8 mph77%30.07 "Hg10 mi
8:51 AM77 °FOvercast.7 mph85%30.06 "Hg10 mi
7:51 AM75 °FPartly sunny.6 mph90%30.05 "Hg10 mi
7:00 AM74 °FPassing clouds.5 mph94%30.05 "Hg10 mi
5:51 AM75 °FPassing clouds.5 mph90%30.02 "Hg10 mi
4:51 AM75 °FPassing clouds.5 mph90%30.01 "Hg10 mi
3:51 AM76 °FPassing clouds.7 mph88%30.01 "Hg10 mi
2:51 AM77 °FPassing clouds.6 mph85%30.03 "Hg10 mi
1:51 AM77 °FClear.8 mph85%30.04 "Hg10 mi
12:51 AM78 °FClear.8 mph82%30.04 "Hg10 mi
11:51 PM
Tue, Jul 26
79 °FPassing clouds.10 mph79%30.03 "Hg10 mi
10:51 PM80 °FClear.8 mph76%30.03 "Hg10 mi
9:51 PM81 °FPassing clouds.12 mph74%30.01 "Hg10 mi
8:51 PM84 °FSunny.15 mph67%29.99 "Hg10 mi
7:51 PM86 °FSunny.12 mph59%29.98 "Hg10 mi
6:51 PM90 °FPassing clouds.15 mph52%29.97 "Hg10 mi
5:51 PM91 °FPassing clouds.13 mph49%29.96 "Hg10 mi
4:51 PM95 °FSunny.13 mph41%29.95 "Hg10 mi
3:51 PM94 °FScattered clouds.7 mph43%29.98 "Hg10 mi
2:51 PM94 °FSunny.7 mph43%29.99 "Hg10 mi
1:51 PM93 °FPassing clouds.8 mph42%30.02 "Hg10 mi
Weather by CustomWeather, © 2016

See weather overviewHow to use our weather pages